Regional Weather Roundup
Issued by NWS

Home | Current Version | Previous Version | Graphics & Text | Print | Product List | Glossary On
Versions: 1 2 3 4 5 6 7 8 9 10 11 12 13 14 15 16 17 18 19 20 21 22 23 24 25 26 27 28 29 30 31 32 33 34 35 36 37 38 39 40 41 42 43 44 45 46 47 48 49 50
750
ASUS43 KMPX 120501
RWRMN
WEATHER ROUNDUP FOR MINNESOTA
NATIONAL WEATHER SERVICE TWIN CITIES/CHANHASSEN MN
1100 PM CST THU FEB 11 2016


NOTE: "FAIR" INDICATES FEW OR NO CLOUDS BELOW 12,000 FEET WITH NO
SIGNIFICANT WEATHER AND/OR OBSTRUCTIONS TO VISIBILITY. N/A MEANS
CURRENT SKY AND/OR WEATHER CONDITIONS ARE NOT AVAILABLE.

MNZ060>063-068>070-120600-
   Twin Cities Metro

CITY           SKY/WX    TMP DP  RH WIND       PRES   REMARKS
TWIN CITIES    CLOUDY    14   7  73 W6        30.23F WCI   5
ST PAUL        CLOUDY    15   8  73 W6        30.25S WCI   6
CRYSTAL        CLOUDY    14   9  80 W6        30.22S WCI   5
BLAINE         FLURRIES  16  10  79 W6        30.21F WCI   7
LAKEVILLE      FLURRIES  12   7  79 W5        30.21F WCI   4
EDEN PRAIRIE   CLOUDY    16   7  67 W3        30.22S
SOUTH ST PAUL  FLURRIES  15   9  78 CALM      30.23F
LAKE ELMO      FLURRIES  16  10  79 W7        30.22F WCI   6
$$
MNZ001>005-007-008-013>017-022>024-027-028-120600-
   Northwest Minnesota

CITY           SKY/WX    TMP DP  RH WIND       PRES   REMARKS
BEMIDJI        FLURRIES   7   3  84 NW13      30.18S WCI  -9
HALLOCK        CLEAR      3   0  85 NW9       30.31R WCI -11
ROSEAU         CLEAR      0  -6  78 W9        30.24R WCI -16
WARROAD        CLEAR      1  -4  78 W7        30.22R WCI -11
THIEF RVR FALL PTCLDY     5  -9  51 NW10      30.27S WCI -10
CROOKSTON      CLEAR      7   1  78 N8        30.31S WCI  -6
FOSSTON        CLOUDY     7   1  78 NW12      30.24S WCI  -9
DETROIT LAKES  FLURRIES  10   9  92 NW8       30.24S WCI  -1
MOORHEAD       CLOUDY    10   7  85 NW9       30.30R WCI  -2
PARK RAPIDS    CLOUDY     7   1  76 W7        30.19S WCI  -5
MAHNOMEN       CLOUDY     9   6  87 NW13      30.24S WCI  -7
$$
MNZ006-009>011-018-025>026-120600-
   North Central Minnesota

CITY           SKY/WX    TMP DP  RH WIND       PRES   REMARKS
BAUDETTE       CLEAR      1  -5  75 W9        30.17S WCI -14
FLAG ISLAND    CLEAR      0  -8  71 NW15      30.19S WCI -20
INTL FALLS     CLEAR      2  -6  69 NW10      30.14R WCI -14
WASKISH        PTCLDY     1  -2  85 W5        30.19S WCI  -8
LONGVILLE      CLOUDY     9   1  72 W8        30.18S WCI  -4
GRAND RAPIDS   CLOUDY     7   1  78 NW14      30.14S WCI -10
CRANE LAKE     CLEAR      5   0  78 NW3       30.13S
ORR            PTCLDY     3  -2  78 NW10      30.08S WCI -12
COOK           CLOUDY     7   1  78 W12       30.10F WCI  -9
WALKER         CLOUDY     7   2  77 W7        30.19S WCI  -4
$$
MNZ012-019>021-037-120600-
   Northeast Minnesota

CITY           SKY/WX    TMP DP  RH WIND       PRES   REMARKS
DULUTH         CLOUDY    10  -2  58 NW12      30.09F WCI  -5
ELY            CLOUDY     7   1  78 W9        30.06S WCI  -7
HIBBING        CLOUDY     7   0  73 W13G20    30.11F WCI  -9
EVELETH        MOCLDY    10   1  67 W13       30.10F WCI  -5
DULUTH HARBOR  CLOUDY    16   1  53 W10       30.18S WCI   3
TWO HARBORS    CLOUDY    12   0  57 W8        30.08F WCI   1
SILVER BAY     CLEAR     10   0  61 W3        30.06F
GRAND MARAIS     N/A     10   0  63 W6        30.08F WCI   0
G MARAIS ARPRT PTCLDY     1  -6  71 W14G22    29.95S WCI -17
$$
MNZ029>031-032-039>041-046>048-054>057-064-120600-
   West Central Minnesota

CITY           SKY/WX    TMP DP  RH WIND       PRES   REMARKS
FERGUS FALLS   CLOUDY     9   5  85 N8        30.30R WCI  -4
WHEATON        CLOUDY    12   9  85 NW9       30.30R WCI   0
MORRIS         CLOUDY    12   9  85 NW10      30.24R WCI  -1
ALEXANDRIA     CLOUDY    12   8  84 NW9       30.21S WCI   0
ELBOW LAKE     CLOUDY    11   8  85 NW8       30.25S FOG     WCI   0
WADENA         CLOUDY     9   3  78 NW10      30.21S WCI  -6
GLENWOOD       CLOUDY    12  10  92 NW9       30.22S WCI   0
APPLETON       FLURRIES  16  12  86 NW14      30.26S WCI   1
BENSON         FLURRIES  16  10  79 N3        30.24S
ORTONVILLE     FLURRIES  14   9  79 NW9       30.26R WCI   2
MADISON        CLOUDY    16  12  86 NW9       30.26S WCI   4
WILLMAR        FLURRIES  18  12  79 NW8       30.23F WCI   7
$$
MNZ033>034-036-042>043-049>051-058-059-120600-
   Central Minnesota

CITY           SKY/WX    TMP DP  RH WIND       PRES   REMARKS
ST CLOUD       CLOUDY    13   9  84 NW8       30.21S WCI   2
SAUK CENTRE    CLOUDY    12   9  86 W8        30.22R WCI   0
PAYNESVILLE    CLOUDY    14  10  86 NW3       30.22S
AITKIN         CLOUDY    14   0  52 NW6       30.16S WCI   5
PINE RIVER     CLOUDY    10   1  67 NW8       30.22S WCI  -1
BRAINERD       CLOUDY    12   2  64 NW12      30.19R WCI  -2
STAPLES        CLOUDY    10   3  72 NW12      30.21R WCI  -4
LONG PRAIRIE   CLOUDY    12   9  85 W7        30.21R WCI   2
LITTLE FALLS   CLOUDY    14   9  79 W6        30.21S WCI   5
LITCHFIELD     FLURRIES  16  12  86 W3        30.22S
BUFFALO        FLURRIES  13  10  87 CALM      30.23S
MAPLE LAKE     FLURRIES  15  11  85 CALM      30.22S
$$
MNZ037-044-045-052-053-120600-
   East Central Minnesota

CITY           SKY/WX    TMP DP  RH WIND       PRES   REMARKS
PRINCETON      CLOUDY    16  10  79 W6        30.20F WCI   7
MORA           CLOUDY    14  10  85 W6        30.20F WCI   5
CAMBRIDGE      FLURRIES  16   9  73 CALM      30.19F
RUSH CITY      CLOUDY    14  10  82 W6        30.20F WCI   5
MOOSE LAKE     CLOUDY    14   3  62 W5        30.14F WCI   6
HINCKLEY       CLOUDY    16  10  79 W8        30.18S WCI   5
CLOQUET        CLOUDY    12   0  57 W10G17    30.12S WCI  -1
MCGREGOR       CLOUDY    14   3  62 NW7       30.16S WCI   4
$$
MNZ071>073-080-081-089-090-097-098-120600-
   Southwest Minnesota

CITY           SKY/WX    TMP DP  RH WIND       PRES   REMARKS
MONTEVIDEO     FLURRIES  16  10  79 N6        30.26S WCI   7
GRANITE FALLS  FLURRIES  19  16  89 NW8       30.25S WCI   8
CANBY          CLOUDY    19  17  88 NW9       30.26R WCI   9
MARSHALL       MIX PCPN  17  14  88 NW10      30.23S WCI   5
REDWOOD FALLS  CLOUDY    17  13  84 NW8       30.23S WCI   7
OLIVIA         CLOUDY    18  14  86 NW8       30.22S WCI   7
PIPESTONE      CLOUDY    16   9  73 NW6       30.21R WCI   7
WINDOM         CLEAR      7   5  92 CALM      30.20S
WORTHINGTON    CLOUDY    10   7  85 W10       30.20S WCI  -3
JACKSON        CLOUDY    12   9  85 W8        30.20F WCI   1
TRACY          FLURRIES  17  14  86 NW7       30.22R WCI   8
SLAYTON        CLOUDY    14  13  95 NW7       30.20S WCI   4
$$
MNZ065>067-074>077-082>085-091>093-120600-
   South Central Minnesota

CITY           SKY/WX    TMP DP  RH WIND       PRES   REMARKS
MANKATO        CLOUDY    14   9  79 W7        30.22S WCI   4
NEW ULM        MOCLDY    14  10  85 W5        30.22S WCI   6
ST JAMES       CLOUDY    16  12  86 SW7       30.23F WCI   6
FAIRMONT       CLOUDY    12   7  79 W5        30.21S WCI   4
GLENCOE        FLURRIES  17  14  87 W6        30.22S WCI   9
FARIBAULT        N/A     14   9  79 SW5       30.21F WCI   6
OWATONNA       CLOUDY    14   9  79 SW8       30.20F WCI   3
WASECA         CLOUDY    14  10  85 SW9       30.23F WCI   2
ALBERT LEA     CLOUDY    12   9  85 SW3       30.20F
$$
MNZ078>079-086>088-094>096-120600-
   Southeast Minnesota

CITY           SKY/WX    TMP DP  RH WIND       PRES   REMARKS
ROCHESTER      CLOUDY    12   5  73 W8        30.19F WCI   0
RED WING       CLOUDY    16   9  73 W5        30.22F WCI   9
STANTON        CLOUDY    16   8  72 CALM      30.21S
DODGE CENTER   FLURRIES  12   7  79 W10       30.18F WCI  -1
WINONA         FLURRIES  16   7  67 W6        30.24F WCI   7
AUSTIN         FLURRIES  12   7  79 W5        30.20F WCI   4
PRESTON        FLURRIES  10   3  72 W3        30.19F
$$
ABBREVIATIONS USED IN REMARKS
   TC - TEMPERATURES IN CELSIUS
  WCI - WIND CHILL INDEX
   HX - HEAT INDEX
  VSB - VISIBILITY
$$




USA.gov is the U.S. government's official web portal to all federal, state and local government web resources and services.